Temperature
24 26 26 26 27 27 26 26 26 26 26 25 25 25 24 23 22 22 21 20 19 18 18 17 16 16 16 16 15 15 15 15 15 15 14 14 14 14 14 13 13 13 13 13
25 26 26 26 26 26 26 26 25 25 25 25 25 25 25 23 23 22 21 20 19 18 17 16 16 15 15 15 15 15 15 15 15 14 14 14 14 14 13 13 13 13 12 12
25 26 25 25 25 25 26 26 26 25 25 25 24 24 24 24 22 22 21 20 19 18 18 17 16 15 15 15 15 15 15 15 14 14 14 14 13 13 13 13 13 12 12 12
26 26 25 25 25 25 25 26 25 25 25 25 25 24 25 24 23 22 21 20 19 18 17 17 16 15 15 15 15 15 15 14 14 14 13 13 13 13 13 12 12 12 12 12
25 25 25 25 26 25 26 25 25 25 25 25 25 24 25 25 24 23 22 20 19 19 18 17 16 15 15 14 14 14 14 14 13 13 13 13 13 13 12 12 12 12 12 11
25 25 25 25 25 25 25 25 25 25 25 24 25 24 25 25 24 24 22 20 19 18 17 16 16 15 14 14 14 14 14 13 13 13 12 12 12 12 12 12 11 11 11 11
25 25 25 25 25 25 25 25 24 24 24 24 25 24 25 25 24 23 22 20 18 17 16 16 15 15 14 14 14 13 13 13 12 12 12 12 12 11 11 11 11 11 11 11
24 24 25 25 25 25 25 25 24 23 24 25 25 24 25 24 22 21 20 19 18 17 16 15 15 14 14 14 13 13 13 12 12 12 12 11 11 11 11 11 11 11 11 10
24 24 25 25 25 25 25 25 26 25 25 24 25 25 24 23 22 21 20 18 17 16 15 15 15 14 14 13 13 13 12 12 12 12 11 11 11 11 11 11 10 10 10 10
25 23 25 25 25 25 25 25 25 24 23 23 24 25 25 23 22 21 20 19 17 16 15 15 14 14 13 13 13 12 12 12 12 12 12 11 11 11 10 10 10 10 10 10
24 23 24 24 24 24 24 24 24 25 24 23 23 24 24 23 22 21 20 18 17 16 15 14 14 13 13 13 12 12 12 12 12 11 11 11 11 10 10 10 10 10 9 9
24 24 23 24 24 24 24 24 24 23 23 24 24 23 22 22 21 20 19 18 16 15 14 14 13 13 13 12 12 12 12 11 11 11 11 10 10 10 10 10 9 9 9 9
23 22 22 23 23 23 23 24 24 24 23 23 23 23 21 21 20 19 18 16 15 14 14 13 13 13 12 12 12 12 11 11 11 11 10 10 10 10 9 9 9 9 9 9
22 23 23 22 23 23 23 23 23 23 23 23 23 23 22 21 20 19 17 16 15 14 13 13 13 12 12 12 12 11 11 11 10 10 10 10 9 9 9 9 9 9 9 9
22 23 23 23 24 23 23 23 23 23 23 23 23 23 22 22 20 19 17 16 15 14 13 13 13 12 12 12 11 11 11 11 10 10 10 10 9 9 9 9 9 9 9 9
22 22 22 22 23 23 22 23 23 23 23 23 23 22 22 20 19 18 17 16 15 14 14 13 12 12 12 11 11 11 11 10 10 10 10 10 9 9 9 9 9 8 8 8
22 21 22 22 23 22 22 23 23 23 23 23 22 22 21 20 19 18 17 16 15 14 14 13 12 12 12 11 11 11 11 10 10 10 10 10 9 9 9 9 9 8 8 8
21 21 22 22 21 20 22 23 23 22 22 22 22 21 21 20 18 17 16 16 15 14 13 13 12 12 11 11 11 11 11 10 10 10 10 10 9 9 9 9 9 8 8 8
21 21 21 21 21 22 22 22 22 22 22 22 22 21 20 18 18 17 16 15 15 14 13 12 12 12 11 11 11 10 10 10 10 10 10 10 9 9 9 9 9 8 8 8
20 21 21 21 20 21 22 23 22 22 21 21 21 20 19 18 19 18 16 15 14 13 13 12 12 12 11 11 11 10 10 10 10 10 10 10 9 9 9 9 9 9 8 8
21 20 21 21 21 22 22 22 21 21 21 20 20 19 18 19 19 17 15 14 13 13 12 12 12 11 11 11 10 10 10 10 10 10 10 9 9 9 9 9 9 9 9 8
21 21 21 21 20 21 21 21 21 20 19 19 19 18 18 17 16 15 14 14 13 12 12 12 11 11 11 11 10 10 10 10 10 10 9 9 9 9 9 9 9 9 9 9
21 21 22 21 21 20 20 20 19 18 19 18 18 17 16 16 15 15 14 13 13 12 12 12 11 11 11 10 10 10 10 10 10 10 9 9 9 9 9 9 9 9 9 9
21 20 20 20 21 20 19 18 18 18 18 17 17 16 16 15 15 14 13 13 12 12 12 11 11 11 11 11 10 10 10 10 10 10 9 9 9 9 9 9 9 9 10 10
21 20 20 20 20 20 19 18 18 17 16 16 16 15 15 15 14 14 13 13 12 12 12 11 11 11 11 11 10 10 10 10 10 10 10 10 10 10 9 9 9 10 9 10
21 20 20 21 20 20 19 18 17 17 16 16 15 15 15 15 14 13 13 12 12 12 12 11 11 11 11 11 10 10 10 10 10 10 10 10 10 10 10 10 10 10 10 10
Wind_Speed
6 8 7 7 6 3 4 6 6 4 4 6 7 6 6 8 9 9 9 10 10 9 8 8 8 8 8 7 7 7 7 7 6 4 3 3 3 2 3 3 4 3 3 3
7 7 4 4 4 5 6 7 6 4 4 5 6 7 6 8 10 10 10 10 10 9 9 9 9 9 8 8 7 7 7 6 5 4 3 2 2 2 2 3 3 3 3 2
6 3 4 6 7 7 8 7 6 4 4 6 6 8 9 8 9 9 9 10 10 10 10 10 10 10 9 8 8 6 6 6 5 5 4 4 3 2 2 2 2 2 2 2
4 4 6 8 7 7 6 4 5 6 7 6 7 8 8 9 10 10 10 10 10 11 10 10 10 10 9 8 7 7 6 6 5 5 4 4 3 2 1 1 2 1 1 2
4 5 7 7 5 6 3 2 5 7 8 9 9 9 6 8 10 10 9 9 9 10 10 10 10 10 9 8 7 7 6 5 5 4 5 4 3 2 2 1 2 1 1 2
4 4 5 4 3 4 4 5 5 7 9 12 10 10 8 6 8 7 7 7 8 8 9 9 9 9 8 7 7 7 6 5 5 5 4 4 4 3 2 1 1 1 1 2
6 7 6 5 5 7 8 7 6 8 9 9 6 8 7 3 4 5 6 6 7 9 9 9 10 9 9 8 7 7 7 6 5 5 4 3 3 3 2 1 1 1 1 2
6 6 7 7 7 7 10 11 9 8 9 7 6 8 3 2 2 3 4 7 8 9 9 10 10 10 9 9 8 7 7 6 5 5 4 3 2 1 1 1 1 1 2 2
5 4 5 5 6 7 8 10 9 11 12 10 7 6 3 4 5 6 6 7 8 9 9 9 10 10 9 9 8 8 7 6 5 5 4 3 3 3 3 2 1 1 2 1
5 6 6 6 7 8 9 8 7 9 9 10 9 9 5 5 6 6 7 8 8 9 9 9 9 9 9 9 8 7 7 6 5 4 3 3 3 3 2 1 2 3 2 2
6 6 6 7 9 9 8 9 9 9 9 10 10 4 2 2 4 5 6 7 8 9 9 9 9 9 9 9 8 8 7 6 5 4 3 3 2 3 2 1 1 2 2 3
5 5 7 7 5 6 9 9 9 9 9 9 10 4 4 3 4 5 6 7 8 8 8 9 9 9 9 9 8 7 7 6 5 4 4 3 3 2 1 1 1 1 2 3
4 4 6 6 5 6 7 8 9 9 8 9 10 4 5 4 4 5 6 8 8 8 9 9 9 9 8 8 7 7 6 6 5 5 5 4 3 2 2 1 1 1 1 2
4 6 8 9 7 5 7 8 9 11 10 10 10 7 3 4 5 6 7 7 8 8 9 9 9 8 8 8 7 7 6 6 6 5 5 4 3 3 2 1 1 1 1 2
4 7 8 8 7 7 9 10 11 12 12 11 10 8 5 4 5 6 7 8 8 9 9 10 9 9 9 8 7 7 6 6 6 5 4 4 3 3 2 1 1 1 1 2
3 5 6 7 6 7 9 10 10 11 11 10 9 7 1 3 5 7 8 8 8 9 9 10 10 10 9 9 8 8 7 6 6 5 4 4 3 3 2 1 1 1 1 2
5 5 6 7 6 7 9 8 8 8 7 7 7 4 3 5 7 8 8 8 9 9 9 10 10 10 9 9 9 8 7 7 6 5 4 4 3 3 2 1 0 0 1 2
6 7 6 6 6 8 2 1 4 6 6 5 5 3 4 5 5 6 7 8 8 8 9 9 9 9 9 9 9 8 7 6 6 5 4 3 3 2 1 1 0 0 1 2
7 8 6 5 7 7 4 4 5 6 6 4 5 5 5 5 5 6 7 7 7 8 8 8 9 9 9 10 9 9 8 7 6 5 4 3 3 2 2 1 0 1 1 2
6 8 7 7 8 6 2 2 2 5 6 4 5 6 7 8 6 5 8 8 7 8 8 8 9 9 9 9 9 9 8 7 6 5 4 3 3 2 2 1 1 1 2 3
6 7 9 10 8 5 0 3 4 5 0 3 4 6 8 8 2 5 9 8 8 8 9 9 10 9 9 9 10 9 8 7 5 4 4 3 3 3 2 2 2 2 3 3
7 6 7 7 7 4 3 3 3 3 3 1 3 5 6 5 4 7 9 9 10 9 9 10 9 9 8 9 10 9 8 7 6 5 4 3 3 2 2 2 2 3 4 4
6 5 4 4 3 1 1 2 2 2 1 1 3 5 6 6 6 8 9 9 9 9 9 10 10 9 9 9 9 9 8 7 6 5 4 3 2 2 2 2 3 3 4 4
5 3 5 5 5 4 4 4 3 3 2 1 4 6 7 7 7 8 8 9 9 9 9 10 10 10 9 9 9 8 8 7 6 5 4 3 3 2 2 3 3 3 3 4
5 5 6 7 6 5 5 4 3 2 2 3 4 6 7 8 8 8 8 8 8 9 9 10 9 9 9 9 8 8 8 7 6 5 4 3 3 2 2 3 3 4 4 4
8 8 8 6 5 5 4 5 5 5 5 5 6 6 7 7 8 8 8 8 8 9 9 9 9 9 9 9 8 8 8 7 6 5 4 3 3 2 2 2 2 3 6 5
Wind_Direction
196 209 201 196 225 259 222 219 212 201 182 222 225 225 208 196 200 201 199 193 185 179 171 165 166 164 158 158 158 156 157 152 153 154 163 152 134 118 104 88 78 66 48 33
203 205 191 193 218 227 222 224 217 192 185 229 231 240 224 209 211 209 205 199 191 180 175 170 172 170 166 162 161 159 160 156 160 158 161 159 134 121 106 90 79 59 47 23
225 157 168 204 209 218 224 231 228 217 200 219 232 240 223 209 211 211 209 204 196 188 186 181 180 177 172 168 166 160 152 150 153 152 151 141 141 154 136 114 91 59 33 19
221 195 205 218 217 226 230 223 231 218 227 236 230 257 226 209 206 209 211 207 200 191 188 185 180 176 172 166 161 156 147 146 147 156 159 157 157 148 117 96 76 55 42 20
205 196 210 225 225 235 244 209 228 236 250 259 239 259 249 203 219 211 208 204 203 194 185 183 181 173 165 157 151 146 142 141 142 152 162 167 156 141 127 103 89 34 42 22
241 221 233 241 236 222 193 206 227 237 244 250 244 254 258 225 233 221 200 187 190 184 176 173 168 160 156 153 148 143 141 143 150 154 150 153 147 146 143 127 84 31 28 25
219 211 203 211 218 203 217 231 244 239 237 249 226 247 263 230 222 215 199 179 168 164 164 164 164 161 156 156 152 149 147 145 149 150 147 146 151 169 165 163 89 360 357 18
250 224 196 205 227 233 228 241 256 268 265 265 225 247 257 136 158 178 173 163 156 158 159 163 166 163 159 157 156 154 153 149 148 146 144 139 141 135 100 69 3 345 350 9
254 242 187 213 228 243 236 245 271 275 270 271 257 253 234 185 182 176 166 164 163 160 159 161 160 160 159 158 158 158 154 148 145 140 135 136 126 98 83 75 6 14 14 360
264 261 223 209 225 232 255 267 261 261 267 269 261 255 253 196 188 172 173 172 163 157 156 154 155 157 157 155 154 151 148 149 147 143 136 127 124 116 113 78 45 33 19 7
254 254 232 216 235 246 227 235 250 265 271 275 277 279 43 156 169 174 169 168 166 160 156 154 154 152 150 153 155 156 156 155 151 143 130 121 120 115 115 83 55 42 19 2
237 254 257 249 251 263 253 252 247 258 265 265 277 287 83 123 151 162 156 150 150 151 152 153 153 149 150 154 157 159 158 158 153 144 133 123 118 114 102 75 58 43 17 2
211 230 251 245 217 215 238 244 249 259 271 269 270 270 121 138 147 153 151 147 150 153 155 156 156 156 155 155 154 156 157 156 154 149 144 133 131 122 102 72 55 41 19 4
238 244 259 274 288 274 256 247 244 249 257 264 269 277 218 190 182 175 163 158 161 162 165 164 162 162 160 158 156 158 158 157 156 153 150 144 140 132 120 87 71 51 24 12
235 251 263 276 279 269 267 261 251 250 261 273 281 281 275 226 197 183 171 169 170 170 173 173 170 165 164 162 159 159 159 160 162 161 155 145 140 137 130 105 73 42 18 3
235 254 263 267 263 265 266 263 257 254 257 264 272 279 288 165 172 177 179 179 180 182 181 178 173 170 170 167 165 162 163 163 164 164 160 149 149 147 141 129 96 26 358 349
223 233 256 269 274 269 264 258 249 249 251 257 268 275 174 179 184 185 185 184 187 186 182 180 179 176 173 171 169 167 163 162 167 166 161 156 155 151 158 158 151 347 338 337
230 240 252 269 268 259 275 289 254 249 251 249 254 237 202 190 185 184 187 185 186 183 180 178 180 179 175 171 170 168 164 165 168 167 163 159 161 153 150 155 144 289 309 320
223 231 246 256 261 265 247 227 234 244 253 236 227 207 187 161 168 189 186 184 182 180 177 176 177 175 172 170 168 168 169 169 172 168 166 166 170 168 174 170 192 272 291 299
201 223 240 251 268 272 273 144 206 252 243 186 201 195 182 183 210 196 172 176 172 168 167 169 169 168 171 171 169 171 173 174 177 173 174 179 184 187 190 193 247 262 275 280
206 217 235 250 259 265 337 157 198 241 353 136 200 197 192 205 242 135 156 164 161 160 162 165 167 168 172 171 170 174 177 178 176 174 179 184 188 197 203 213 247 268 273 282
230 231 232 247 254 254 117 184 232 342 39 172 199 191 189 172 137 145 153 156 158 160 163 165 166 167 170 171 172 175 177 174 172 172 180 185 194 210 199 216 248 265 270 266
236 255 263 251 269 37 189 256 323 329 299 229 199 180 172 163 158 155 155 157 161 163 164 165 167 166 167 171 174 175 173 171 170 174 180 186 195 218 232 248 259 263 261 269
219 237 246 249 246 243 245 250 254 263 270 220 188 175 173 168 159 157 158 161 163 164 164 166 167 167 167 171 175 174 167 167 173 179 181 191 204 220 227 249 257 274 288 293
246 214 233 247 245 240 234 223 213 211 194 165 161 169 173 166 162 160 161 164 163 162 162 165 169 168 166 167 170 170 168 170 175 181 190 208 220 223 246 251 271 279 296 305
225 226 237 254 234 238 231 212 199 186 177 164 158 158 164 165 161 161 160 159 160 161 160 164 168 168 166 167 169 171 171 175 179 188 199 215 226 230 245 251 262 231 243 256
Height
1511 1507 1504 1503 1502 1502 1503 1505 1507 1507 1508 1510 1510 1511 1514 1518 1520 1521 1523 1526 1528 1531 1534 1536 1537 1539 1541 1543 1545 1547 1548 1548 1550 1551 1553 1553 1553 1553 1553 1553 1551 1551 1550 1549
1508 1504 1503 1505 1506 1505 1505 1507 1507 1508 1510 1510 1510 1511 1511 1514 1516 1519 1521 1524 1526 1529 1532 1534 1535 1537 1539 1541 1543 1545 1546 1547 1548 1549 1550 1551 1551 1552 1552 1551 1550 1550 1549 1548
1503 1502 1505 1506 1506 1506 1505 1505 1505 1508 1509 1509 1511 1512 1509 1510 1514 1517 1519 1521 1524 1526 1529 1531 1533 1535 1537 1539 1541 1543 1544 1545 1546 1547 1548 1549 1549 1550 1551 1550 1549 1548 1548 1547
1501 1502 1505 1504 1504 1503 1505 1501 1503 1506 1508 1506 1508 1511 1504 1504 1509 1513 1516 1518 1521 1523 1526 1529 1531 1533 1535 1537 1539 1540 1542 1543 1544 1545 1547 1547 1548 1549 1549 1548 1547 1547 1547 1546
1501 1502 1503 1503 1502 1502 1502 1502 1503 1503 1504 1505 1504 1508 1501 1500 1504 1506 1511 1515 1518 1521 1523 1526 1529 1531 1533 1535 1537 1538 1540 1541 1542 1544 1545 1545 1546 1547 1547 1547 1546 1546 1546 1545
1500 1501 1502 1501 1502 1502 1502 1503 1502 1501 1501 1511 1501 1506 1502 1495 1498 1501 1506 1512 1515 1519 1521 1524 1527 1529 1531 1533 1535 1536 1538 1539 1541 1542 1543 1543 1544 1545 1545 1545 1545 1545 1545 1544
1500 1498 1500 1501 1502 1503 1501 1505 1511 1512 1510 1505 1494 1501 1498 1492 1496 1500 1504 1509 1513 1516 1519 1522 1525 1528 1530 1532 1534 1535 1537 1538 1539 1540 1541 1542 1542 1543 1544 1544 1544 1544 1544 1543
1501 1500 1496 1498 1499 1499 1498 1499 1510 1515 1509 1498 1495 1498 1491 1493 1498 1502 1505 1508 1512 1515 1518 1521 1524 1526 1528 1530 1532 1534 1536 1537 1538 1539 1540 1541 1541 1542 1543 1542 1543 1543 1542 1541
1499 1499 1494 1496 1497 1496 1496 1495 1489 1497 1495 1500 1493 1489 1491 1494 1498 1502 1505 1509 1511 1515 1517 1520 1522 1525 1527 1529 1531 1533 1535 1536 1537 1538 1539 1540 1540 1540 1541 1541 1541 1541 1540 1540
1495 1501 1494 1494 1496 1495 1493 1490 1495 1498 1506 1505 1495 1490 1487 1491 1494 1499 1504 1507 1511 1514 1517 1519 1522 1524 1526 1528 1530 1532 1534 1535 1536 1537 1538 1539 1539 1539 1540 1541 1540 1540 1539 1538
1495 1499 1496 1495 1495 1492 1494 1495 1494 1491 1491 1500 1501 1492 1483 1488 1493 1498 1503 1506 1510 1513 1516 1518 1521 1523 1525 1527 1530 1532 1533 1535 1536 1537 1538 1538 1539 1539 1539 1540 1539 1539 1538 1537
1495 1495 1496 1491 1488 1489 1488 1488 1490 1498 1496 1491 1493 1494 1488 1491 1495 1498 1503 1507 1510 1513 1515 1518 1520 1522 1525 1527 1529 1531 1533 1534 1535 1536 1537 1538 1538 1538 1538 1539 1538 1537 1537 1536
1496 1498 1502 1497 1495 1492 1490 1488 1487 1488 1490 1492 1493 1493 1491 1493 1496 1500 1503 1507 1510 1513 1515 1517 1519 1522 1524 1526 1528 1531 1532 1533 1534 1536 1537 1537 1537 1538 1538 1537 1537 1536 1535 1535
1496 1494 1496 1499 1492 1488 1490 1489 1487 1489 1489 1489 1486 1486 1488 1491 1495 1499 1503 1507 1510 1512 1514 1516 1519 1521 1523 1526 1528 1530 1531 1533 1534 1535 1536 1537 1537 1537 1537 1537 1536 1535 1535 1534
1494 1492 1488 1486 1485 1485 1486 1486 1485 1486 1485 1486 1483 1483 1484 1488 1493 1498 1502 1506 1509 1511 1514 1516 1518 1520 1523 1525 1527 1528 1530 1532 1533 1534 1535 1536 1536 1536 1536 1536 1535 1535 1534 1534
1493 1492 1489 1488 1485 1485 1486 1483 1482 1482 1482 1481 1482 1483 1484 1490 1494 1498 1502 1505 1507 1510 1512 1514 1516 1519 1521 1523 1525 1527 1529 1531 1532 1533 1534 1535 1535 1535 1535 1535 1535 1534 1534 1533
1489 1491 1492 1489 1483 1486 1487 1479 1479 1479 1479 1480 1482 1483 1486 1490 1493 1497 1500 1503 1505 1508 1510 1512 1515 1517 1519 1522 1524 1526 1528 1530 1531 1533 1533 1534 1535 1535 1535 1535 1534 1533 1533 1532
1490 1490 1489 1488 1490 1496 1481 1476 1476 1478 1478 1478 1480 1483 1486 1490 1493 1496 1499 1501 1503 1506 1508 1511 1513 1516 1518 1521 1523 1525 1527 1529 1530 1532 1533 1533 1534 1534 1534 1534 1533 1533 1532 1531
1487 1488 1488 1488 1488 1483 1477 1475 1476 1478 1478 1477 1479 1483 1486 1490 1493 1495 1498 1500 1502 1504 1506 1509 1512 1514 1516 1519 1521 1524 1526 1528 1530 1531 1532 1533 1533 1533 1533 1533 1532 1532 1531 1531
1486 1486 1486 1486 1490 1488 1477 1474 1476 1478 1479 1477 1479 1482 1486 1489 1489 1490 1495 1498 1500 1503 1505 1507 1510 1513 1515 1518 1520 1523 1525 1527 1528 1530 1531 1532 1532 1532 1532 1532 1532 1531 1530 1530
1483 1484 1484 1483 1485 1476 1472 1475 1478 1482 1478 1478 1479 1482 1485 1486 1487 1490 1493 1497 1499 1501 1503 1506 1509 1511 1514 1516 1519 1521 1524 1526 1527 1529 1530 1530 1531 1531 1531 1531 1530 1530 1529 1529
1478 1478 1481 1480 1482 1479 1474 1474 1476 1477 1478 1478 1480 1482 1484 1486 1488 1490 1492 1495 1498 1500 1502 1505 1507 1510 1513 1515 1517 1520 1522 1524 1526 1527 1529 1529 1530 1530 1530 1529 1529 1529 1528 1527
1474 1474 1472 1474 1475 1474 1475 1476 1478 1479 1478 1479 1480 1482 1484 1486 1488 1490 1492 1495 1497 1499 1501 1504 1506 1509 1512 1514 1516 1519 1521 1523 1525 1526 1527 1528 1529 1529 1529 1529 1528 1528 1527 1527
1472 1476 1474 1473 1471 1474 1475 1477 1477 1478 1478 1479 1480 1482 1484 1485 1487 1489 1492 1494 1496 1498 1500 1503 1505 1508 1510 1513 1515 1517 1519 1522 1524 1525 1526 1527 1528 1528 1528 1527 1528 1527 1527 1526
1469 1473 1472 1472 1471 1473 1473 1475 1476 1477 1478 1478 1479 1481 1483 1485 1487 1489 1491 1493 1495 1497 1500 1502 1505 1507 1509 1512 1514 1516 1518 1520 1522 1524 1525 1526 1527 1527 1527 1527 1526 1526 1525 1524
1467 1468 1468 1466 1468 1470 1471 1473 1474 1475 1476 1477 1479 1480 1482 1484 1486 1488 1490 1492 1495 1497 1499 1502 1504 1507 1509 1511 1513 1515 1517 1519 1521 1523 1524 1525 1526 1526 1526 1525 1525 1524 1523 1522